Year,Month,Day,Hour,Minute,Value (Times are PST for temperature in C)
2018,05,05,00,00,9.60
2018,05,05,00,01,9.60
2018,05,05,00,02,9.60
2018,05,05,00,03,9.50
2018,05,05,00,04,9.50
2018,05,05,00,05,9.50
2018,05,05,00,06,9.40
2018,05,05,00,07,9.40
2018,05,05,00,08,9.40
2018,05,05,00,09,9.40
2018,05,05,00,10,9.30
2018,05,05,00,11,9.30
2018,05,05,00,12,9.30
2018,05,05,00,13,9.30
2018,05,05,00,14,9.30
2018,05,05,00,15,9.30
2018,05,05,00,16,9.20
2018,05,05,00,17,9.20
2018,05,05,00,18,9.20
2018,05,05,00,19,9.20
2018,05,05,00,20,9.20
2018,05,05,00,21,9.20
2018,05,05,00,22,9.20
2018,05,05,00,23,9.20
2018,05,05,00,24,9.20
2018,05,05,00,25,9.20
2018,05,05,00,26,9.20
2018,05,05,00,27,9.20
2018,05,05,00,28,9.20
2018,05,05,00,29,9.10
2018,05,05,00,30,9.10
2018,05,05,00,31,9.10
2018,05,05,00,32,9.10
2018,05,05,00,33,9.10
2018,05,05,00,34,9.10
2018,05,05,00,35,9.10
2018,05,05,00,36,9.10
2018,05,05,00,37,9.10
2018,05,05,00,38,9.10
2018,05,05,00,39,9.10
2018,05,05,00,40,9.10
2018,05,05,00,41,9.10
2018,05,05,00,42,9.00
2018,05,05,00,43,9.00
2018,05,05,00,44,9.00
2018,05,05,00,45,9.00
2018,05,05,00,46,9.00
2018,05,05,00,47,8.90
2018,05,05,00,48,8.90
2018,05,05,00,49,8.90
2018,05,05,00,50,8.80
2018,05,05,00,51,8.80
2018,05,05,00,52,8.80
2018,05,05,00,53,8.70
2018,05,05,00,54,8.70
2018,05,05,00,55,8.70
2018,05,05,00,56,8.70
2018,05,05,00,57,8.70
2018,05,05,00,58,8.70
2018,05,05,00,59,8.70
2018,05,05,01,00,8.70
2018,05,05,01,01,8.70
2018,05,05,01,02,8.70
2018,05,05,01,03,8.70
2018,05,05,01,04,8.70
2018,05,05,01,05,8.70
2018,05,05,01,06,8.70
2018,05,05,01,07,8.70
2018,05,05,01,08,8.70
2018,05,05,01,09,8.70
2018,05,05,01,10,8.70
2018,05,05,01,11,8.70
2018,05,05,01,12,8.70
2018,05,05,01,13,8.70
2018,05,05,01,14,8.70
2018,05,05,01,15,8.70
2018,05,05,01,16,8.70
2018,05,05,01,17,8.70
2018,05,05,01,18,8.70
2018,05,05,01,19,8.70
2018,05,05,01,20,8.70
2018,05,05,01,21,8.70
2018,05,05,01,22,8.70
2018,05,05,01,23,8.70
2018,05,05,01,24,8.70
2018,05,05,01,25,8.70
2018,05,05,01,26,8.70
2018,05,05,01,27,8.70
2018,05,05,01,28,8.70
2018,05,05,01,29,8.60
2018,05,05,01,30,8.60
2018,05,05,01,31,8.60
2018,05,05,01,32,8.60
2018,05,05,01,33,8.50
2018,05,05,01,34,8.50
2018,05,05,01,35,8.50
2018,05,05,01,36,8.50
2018,05,05,01,37,8.50
2018,05,05,01,38,8.50
2018,05,05,01,39,8.40
2018,05,05,01,40,8.40
2018,05,05,01,41,8.40
2018,05,05,01,42,8.40
2018,05,05,01,43,8.40
2018,05,05,01,44,8.30
2018,05,05,01,45,8.30
2018,05,05,01,46,8.30
2018,05,05,01,47,8.30
2018,05,05,01,48,8.20
2018,05,05,01,49,8.20
2018,05,05,01,50,8.20
2018,05,05,01,51,8.20
2018,05,05,01,52,8.20
2018,05,05,01,53,8.20
2018,05,05,01,54,8.30
2018,05,05,01,55,8.30
2018,05,05,01,56,8.30
2018,05,05,01,57,8.30
2018,05,05,01,58,8.30
2018,05,05,01,59,8.30
2018,05,05,02,00,8.30
2018,05,05,02,01,8.30
2018,05,05,02,02,8.30
2018,05,05,02,03,8.30
2018,05,05,02,04,8.30
2018,05,05,02,05,8.30
2018,05,05,02,06,8.30
2018,05,05,02,07,8.30
2018,05,05,02,08,8.30
2018,05,05,02,09,8.30
2018,05,05,02,10,8.30
2018,05,05,02,11,8.20
2018,05,05,02,12,8.20
2018,05,05,02,13,8.20
2018,05,05,02,14,8.20
2018,05,05,02,15,8.20
2018,05,05,02,16,8.20
2018,05,05,02,17,8.20
2018,05,05,02,18,8.20
2018,05,05,02,19,8.20
2018,05,05,02,20,8.20
2018,05,05,02,21,8.20
2018,05,05,02,22,8.10
2018,05,05,02,23,8.10
2018,05,05,02,24,8.10
2018,05,05,02,25,8.10
2018,05,05,02,26,8.10
2018,05,05,02,27,8.10
2018,05,05,02,28,8.10
2018,05,05,02,29,8.00
2018,05,05,02,30,8.00
2018,05,05,02,31,8.00
2018,05,05,02,32,8.00
2018,05,05,02,33,8.00
2018,05,05,02,34,8.00
2018,05,05,02,35,8.00
2018,05,05,02,36,8.00
2018,05,05,02,37,8.00
2018,05,05,02,38,8.00
2018,05,05,02,39,8.00
2018,05,05,02,40,8.00
2018,05,05,02,41,8.00
2018,05,05,02,42,8.00
2018,05,05,02,43,8.00
2018,05,05,02,44,8.00
2018,05,05,02,45,7.90
2018,05,05,02,46,7.90
2018,05,05,02,47,7.90
2018,05,05,02,48,7.90
2018,05,05,02,49,7.90
2018,05,05,02,50,7.90
2018,05,05,02,51,7.90
2018,05,05,02,52,7.90
2018,05,05,02,53,7.90
2018,05,05,02,54,7.90
2018,05,05,02,55,7.80
2018,05,05,02,56,7.80
2018,05,05,02,57,7.80
2018,05,05,02,58,7.80
2018,05,05,02,59,7.80
2018,05,05,03,00,7.80
2018,05,05,03,01,7.80
2018,05,05,03,02,7.80
2018,05,05,03,03,7.80
2018,05,05,03,04,7.80
2018,05,05,03,05,7.80
2018,05,05,03,06,7.80
2018,05,05,03,07,7.80
2018,05,05,03,08,7.80
2018,05,05,03,09,7.80
2018,05,05,03,10,7.80
2018,05,05,03,11,7.80
2018,05,05,03,12,7.80
2018,05,05,03,13,7.80
2018,05,05,03,14,7.80
2018,05,05,03,15,7.80
2018,05,05,03,16,7.80
2018,05,05,03,17,7.80
2018,05,05,03,18,7.80
2018,05,05,03,19,7.80
2018,05,05,03,20,7.80
2018,05,05,03,21,7.80
2018,05,05,03,22,7.70
2018,05,05,03,23,7.70
2018,05,05,03,24,7.70
2018,05,05,03,25,7.70
2018,05,05,03,26,7.70
2018,05,05,03,27,7.60
2018,05,05,03,28,7.60
2018,05,05,03,29,7.60
2018,05,05,03,30,7.60
2018,05,05,03,31,7.60
2018,05,05,03,32,7.60
2018,05,05,03,33,7.50
2018,05,05,03,34,7.50
2018,05,05,03,35,7.50
2018,05,05,03,36,7.50
2018,05,05,03,37,7.40
2018,05,05,03,38,7.40
2018,05,05,03,39,7.40
2018,05,05,03,40,7.40
2018,05,05,03,41,7.40
2018,05,05,03,42,7.40
2018,05,05,03,43,7.40
2018,05,05,03,44,7.40
2018,05,05,03,45,7.40
2018,05,05,03,46,7.40
2018,05,05,03,47,7.40
2018,05,05,03,48,7.40
2018,05,05,03,49,7.40
2018,05,05,03,50,7.30
2018,05,05,03,51,7.30
2018,05,05,03,52,7.30
2018,05,05,03,53,7.30
2018,05,05,03,54,7.30
2018,05,05,03,55,7.30
2018,05,05,03,56,7.30
2018,05,05,03,57,7.30
2018,05,05,03,58,7.30
2018,05,05,03,59,7.30
2018,05,05,04,00,7.30
2018,05,05,04,01,7.30
2018,05,05,04,02,7.30
2018,05,05,04,03,7.30
2018,05,05,04,04,7.30
2018,05,05,04,05,7.30
2018,05,05,04,06,7.30
2018,05,05,04,07,7.30
2018,05,05,04,08,7.30
2018,05,05,04,09,7.30
2018,05,05,04,10,7.30
2018,05,05,04,11,7.30
2018,05,05,04,12,7.30
2018,05,05,04,13,7.30
2018,05,05,04,14,7.30
2018,05,05,04,15,7.20
2018,05,05,04,16,7.20
2018,05,05,04,17,7.20
2018,05,05,04,18,7.20
2018,05,05,04,19,7.20
2018,05,05,04,20,7.20
2018,05,05,04,21,7.10
2018,05,05,04,22,7.10
2018,05,05,04,23,7.10
2018,05,05,04,24,7.10
2018,05,05,04,25,7.10
2018,05,05,04,26,7.10
2018,05,05,04,27,7.10
2018,05,05,04,28,7.10
2018,05,05,04,29,7.10
2018,05,05,04,30,7.10
2018,05,05,04,31,7.10
2018,05,05,04,32,7.10
2018,05,05,04,33,7.10
2018,05,05,04,34,7.10
2018,05,05,04,35,7.10
2018,05,05,04,36,7.10
2018,05,05,04,37,7.10
2018,05,05,04,38,7.10
2018,05,05,04,39,7.00
2018,05,05,04,40,7.00
2018,05,05,04,41,7.00
2018,05,05,04,42,7.00
2018,05,05,04,43,7.00
2018,05,05,04,44,7.00
2018,05,05,04,45,7.00
2018,05,05,04,46,6.90
2018,05,05,04,47,6.90
2018,05,05,04,48,6.90
2018,05,05,04,49,6.90
2018,05,05,04,50,6.90
2018,05,05,04,51,6.80
2018,05,05,04,52,6.80
2018,05,05,04,53,6.80
2018,05,05,04,54,6.80
2018,05,05,04,55,6.80
2018,05,05,04,56,6.80
2018,05,05,04,57,6.80
2018,05,05,04,58,6.80
2018,05,05,04,59,6.80
2018,05,05,05,00,6.80
2018,05,05,05,01,6.80
2018,05,05,05,02,6.80
2018,05,05,05,03,6.80
2018,05,05,05,04,6.80
2018,05,05,05,05,6.80
2018,05,05,05,06,6.80
2018,05,05,05,07,6.70
2018,05,05,05,08,6.70
2018,05,05,05,09,6.70
2018,05,05,05,10,6.70
2018,05,05,05,11,6.70
2018,05,05,05,12,6.70
2018,05,05,05,13,6.70
2018,05,05,05,14,6.60
2018,05,05,05,15,6.60
2018,05,05,05,16,6.60
2018,05,05,05,17,6.60
2018,05,05,05,18,6.60
2018,05,05,05,19,6.60
2018,05,05,05,20,6.60
2018,05,05,05,21,6.50
2018,05,05,05,22,6.40
2018,05,05,05,23,6.40
2018,05,05,05,24,6.40
2018,05,05,05,25,6.40
2018,05,05,05,26,6.40
2018,05,05,05,27,6.40
2018,05,05,05,28,6.40
2018,05,05,05,29,6.40
2018,05,05,05,30,6.40
2018,05,05,05,31,6.40
2018,05,05,05,32,6.40
2018,05,05,05,33,6.40
2018,05,05,05,34,6.50
2018,05,05,05,35,6.60
2018,05,05,05,36,6.60
2018,05,05,05,37,6.60
2018,05,05,05,38,6.60
2018,05,05,05,39,6.60
2018,05,05,05,40,6.60
2018,05,05,05,41,6.60
2018,05,05,05,42,6.60
2018,05,05,05,43,6.60
2018,05,05,05,44,6.60
2018,05,05,05,45,6.60
2018,05,05,05,46,6.60
2018,05,05,05,47,6.60
2018,05,05,05,48,6.60
2018,05,05,05,49,6.60
2018,05,05,05,50,6.60
2018,05,05,05,51,6.60
2018,05,05,05,52,6.60
2018,05,05,05,53,6.60
2018,05,05,05,54,6.60
2018,05,05,05,55,6.60
2018,05,05,05,56,6.50
2018,05,05,05,57,6.40
2018,05,05,05,58,6.40
2018,05,05,05,59,6.40
2018,05,05,06,00,6.40
2018,05,05,06,01,6.40
2018,05,05,06,02,6.40
2018,05,05,06,03,6.40
2018,05,05,06,04,6.40
2018,05,05,06,05,6.40
2018,05,05,06,06,6.50
2018,05,05,06,07,6.60
2018,05,05,06,08,6.60
2018,05,05,06,09,6.60
2018,05,05,06,10,6.60
2018,05,05,06,11,6.60
2018,05,05,06,12,6.60
2018,05,05,06,13,6.60
2018,05,05,06,14,6.60
2018,05,05,06,15,6.60
2018,05,05,06,16,6.60
2018,05,05,06,17,6.60
2018,05,05,06,18,6.60
2018,05,05,06,19,6.60
2018,05,05,06,20,6.60
2018,05,05,06,21,6.70
2018,05,05,06,22,6.70
2018,05,05,06,23,6.70
2018,05,05,06,24,6.80
2018,05,05,06,25,6.80
2018,05,05,06,26,6.80
2018,05,05,06,27,6.80
2018,05,05,06,28,6.80
2018,05,05,06,29,6.80
2018,05,05,06,30,6.80
2018,05,05,06,31,6.90
2018,05,05,06,32,6.90
2018,05,05,06,33,7.00
2018,05,05,06,34,7.10
2018,05,05,06,35,7.10
2018,05,05,06,36,7.20
2018,05,05,06,37,7.20
2018,05,05,06,38,7.20
2018,05,05,06,39,7.30
2018,05,05,06,40,7.30
2018,05,05,06,41,7.30
2018,05,05,06,42,7.40
2018,05,05,06,43,7.40
2018,05,05,06,44,7.50
2018,05,05,06,45,7.50
2018,05,05,06,46,7.60
2018,05,05,06,47,7.60
2018,05,05,06,48,7.70
2018,05,05,06,49,7.80
2018,05,05,06,50,7.80
2018,05,05,06,51,7.80
2018,05,05,06,52,7.90
2018,05,05,06,53,7.90
2018,05,05,06,54,8.00
2018,05,05,06,55,8.00
2018,05,05,06,56,8.10
2018,05,05,06,57,8.20
2018,05,05,06,58,8.20
2018,05,05,06,59,8.20
2018,05,05,07,00,8.20
2018,05,05,07,01,8.30
2018,05,05,07,02,8.40
2018,05,05,07,03,8.50
2018,05,05,07,04,8.50
2018,05,05,07,05,8.60
2018,05,05,07,06,8.70
2018,05,05,07,07,8.80
2018,05,05,07,08,8.90
2018,05,05,07,09,9.00
2018,05,05,07,10,9.10
2018,05,05,07,11,9.20
2018,05,05,07,12,9.30
2018,05,05,07,13,9.40
2018,05,05,07,14,9.50
2018,05,05,07,15,9.60
2018,05,05,07,16,9.70
2018,05,05,07,17,9.80
2018,05,05,07,18,9.80
2018,05,05,07,19,9.90
2018,05,05,07,20,9.90
2018,05,05,07,21,10.00
2018,05,05,07,22,10.10
2018,05,05,07,23,10.10
2018,05,05,07,24,10.20
2018,05,05,07,25,10.30
2018,05,05,07,26,10.40
2018,05,05,07,27,10.50
2018,05,05,07,28,10.70
2018,05,05,07,29,10.80
2018,05,05,07,30,10.90
2018,05,05,07,31,11.00
2018,05,05,07,32,11.10
2018,05,05,07,33,11.10
2018,05,05,07,34,11.20
2018,05,05,07,35,11.20
2018,05,05,07,36,11.30
2018,05,05,07,37,11.40
2018,05,05,07,38,11.40
2018,05,05,07,39,11.50
2018,05,05,07,40,11.60
2018,05,05,07,41,11.70
2018,05,05,07,42,11.70
2018,05,05,07,43,11.70
2018,05,05,07,44,11.80
2018,05,05,07,45,11.80
2018,05,05,07,46,11.80
2018,05,05,07,47,11.80
2018,05,05,07,48,11.80
2018,05,05,07,49,11.80
2018,05,05,07,50,11.80
2018,05,05,07,51,11.90
2018,05,05,07,52,12.00
2018,05,05,07,53,12.10
2018,05,05,07,54,12.20
2018,05,05,07,55,12.30
2018,05,05,07,56,12.40
2018,05,05,07,57,12.50
2018,05,05,07,58,12.60
2018,05,05,07,59,12.70
2018,05,05,08,00,12.80
2018,05,05,08,01,12.90
2018,05,05,08,02,13.00
2018,05,05,08,03,13.10
2018,05,05,08,04,13.10
2018,05,05,08,05,13.10
2018,05,05,08,06,13.10
2018,05,05,08,07,13.10
2018,05,05,08,08,13.10
2018,05,05,08,09,13.10
2018,05,05,08,10,13.10
2018,05,05,08,11,13.10
2018,05,05,08,12,13.20
2018,05,05,08,13,13.20
2018,05,05,08,14,13.30
2018,05,05,08,15,13.30
2018,05,05,08,16,13.30
2018,05,05,08,17,13.30
2018,05,05,08,18,13.30
2018,05,05,08,19,13.30
2018,05,05,08,20,13.30
2018,05,05,08,21,13.30
2018,05,05,08,22,13.30
2018,05,05,08,23,13.30
2018,05,05,08,24,13.30
2018,05,05,08,25,13.30
2018,05,05,08,26,13.30
2018,05,05,08,27,13.30
2018,05,05,08,28,13.30
2018,05,05,08,29,13.30
2018,05,05,08,30,13.30
2018,05,05,08,31,13.30
2018,05,05,08,32,13.30
2018,05,05,08,33,13.30
2018,05,05,08,34,13.30
2018,05,05,08,35,13.40
2018,05,05,08,36,13.40
2018,05,05,08,37,13.40
2018,05,05,08,38,13.40
2018,05,05,08,39,13.40
2018,05,05,08,40,13.50
2018,05,05,08,41,13.50
2018,05,05,08,42,13.50
2018,05,05,08,43,13.50
2018,05,05,08,44,13.60
2018,05,05,08,45,13.50
2018,05,05,08,46,13.50
2018,05,05,08,47,13.50
2018,05,05,08,48,13.50
2018,05,05,08,49,13.40
2018,05,05,08,50,13.40
2018,05,05,08,51,13.40
2018,05,05,08,52,13.40
2018,05,05,08,53,13.40
2018,05,05,08,54,13.40
2018,05,05,08,55,13.50
2018,05,05,08,56,13.50
2018,05,05,08,57,13.50
2018,05,05,08,58,13.50
2018,05,05,08,59,13.50
2018,05,05,09,00,13.60
2018,05,05,09,01,13.60
2018,05,05,09,02,13.60
2018,05,05,09,03,13.60
2018,05,05,09,04,13.70
2018,05,05,09,05,13.70
2018,05,05,09,06,13.70
2018,05,05,09,07,13.70
2018,05,05,09,08,13.70
2018,05,05,09,09,13.70
2018,05,05,09,10,13.80
2018,05,05,09,11,13.80
2018,05,05,09,12,13.80
2018,05,05,09,13,13.80
2018,05,05,09,14,13.80
2018,05,05,09,15,13.70
2018,05,05,09,16,13.70
2018,05,05,09,17,13.70
2018,05,05,09,18,13.70
2018,05,05,09,19,13.70
2018,05,05,09,20,13.70
2018,05,05,09,21,13.70
2018,05,05,09,22,13.70
2018,05,05,09,23,13.70
2018,05,05,09,24,13.80
2018,05,05,09,25,13.80
2018,05,05,09,26,13.80
2018,05,05,09,27,13.90
2018,05,05,09,28,13.90
2018,05,05,09,29,13.90
2018,05,05,09,30,14.00
2018,05,05,09,31,14.10
2018,05,05,09,32,14.20
2018,05,05,09,33,14.20
2018,05,05,09,34,14.20
2018,05,05,09,35,14.30
2018,05,05,09,36,14.40
2018,05,05,09,37,14.40
2018,05,05,09,38,14.40
2018,05,05,09,39,14.40
2018,05,05,09,40,14.40
2018,05,05,09,41,14.50
2018,05,05,09,42,14.50
2018,05,05,09,43,14.40
2018,05,05,09,44,14.40
2018,05,05,09,45,14.40
2018,05,05,09,46,14.50
2018,05,05,09,47,14.50
2018,05,05,09,48,14.60
2018,05,05,09,49,14.60
2018,05,05,09,50,14.60
2018,05,05,09,51,14.70
2018,05,05,09,52,14.70
2018,05,05,09,53,14.70
2018,05,05,09,54,14.70
2018,05,05,09,55,14.70
2018,05,05,09,56,14.80
2018,05,05,09,57,14.80
2018,05,05,09,58,14.80
2018,05,05,09,59,14.90
2018,05,05,10,00,14.90
2018,05,05,10,01,15.00
2018,05,05,10,02,15.10
2018,05,05,10,03,15.20
2018,05,05,10,04,15.20
2018,05,05,10,05,15.30
2018,05,05,10,06,15.30
2018,05,05,10,07,15.40
2018,05,05,10,08,15.50
2018,05,05,10,09,15.50
2018,05,05,10,10,15.40
2018,05,05,10,11,15.40
2018,05,05,10,12,15.40
2018,05,05,10,13,15.40
2018,05,05,10,14,15.40
2018,05,05,10,15,15.30
2018,05,05,10,16,15.40
2018,05,05,10,17,15.40
2018,05,05,10,18,15.40
2018,05,05,10,19,15.50
2018,05,05,10,20,15.50
2018,05,05,10,21,15.30
2018,05,05,10,22,15.10
2018,05,05,10,23,14.80
2018,05,05,10,24,14.60
2018,05,05,10,25,14.50
2018,05,05,10,26,14.40
2018,05,05,10,27,14.40
2018,05,05,10,28,14.40
2018,05,05,10,29,14.50
2018,05,05,10,30,14.50
2018,05,05,10,31,14.50
2018,05,05,10,32,14.30
2018,05,05,10,33,14.20
2018,05,05,10,34,14.00
2018,05,05,10,35,13.90
2018,05,05,10,36,13.70
2018,05,05,10,37,13.70
2018,05,05,10,38,13.70
2018,05,05,10,39,13.70
2018,05,05,10,40,13.60
2018,05,05,10,41,13.50
2018,05,05,10,42,13.50
2018,05,05,10,43,13.40
2018,05,05,10,44,13.30
2018,05,05,10,45,13.30
2018,05,05,10,46,13.30
2018,05,05,10,47,13.40
2018,05,05,10,48,13.50
2018,05,05,10,49,13.60
2018,05,05,10,50,13.70
2018,05,05,10,51,13.80
2018,05,05,10,52,14.00
2018,05,05,10,53,14.00
2018,05,05,10,54,14.00
2018,05,05,10,55,14.10
2018,05,05,10,56,14.10
2018,05,05,10,57,14.20
2018,05,05,10,58,14.30
2018,05,05,10,59,14.40
2018,05,05,11,00,14.50
2018,05,05,11,01,14.60
2018,05,05,11,02,14.70
2018,05,05,11,03,14.80
2018,05,05,11,04,14.90
2018,05,05,11,05,15.00
2018,05,05,11,06,15.10
2018,05,05,11,07,15.10
2018,05,05,11,08,15.10
2018,05,05,11,09,15.10
2018,05,05,11,10,15.00
2018,05,05,11,11,15.00
2018,05,05,11,12,15.00
2018,05,05,11,13,14.90
2018,05,05,11,14,14.90
2018,05,05,11,15,14.90
2018,05,05,11,16,14.90
2018,05,05,11,17,15.00
2018,05,05,11,18,15.00
2018,05,05,11,19,15.10
2018,05,05,11,20,15.20
2018,05,05,11,21,15.20
2018,05,05,11,22,15.20
2018,05,05,11,23,15.20
2018,05,05,11,24,15.30
2018,05,05,11,25,15.30
2018,05,05,11,26,15.20
2018,05,05,11,27,15.20
2018,05,05,11,28,15.20
2018,05,05,11,29,15.10
2018,05,05,11,30,15.00
2018,05,05,11,31,15.00
2018,05,05,11,32,14.70
2018,05,05,11,33,14.60
2018,05,05,11,34,14.50
2018,05,05,11,35,14.60
2018,05,05,11,36,14.60
2018,05,05,11,37,14.60
2018,05,05,11,38,14.60
2018,05,05,11,39,14.60
2018,05,05,11,40,14.70
2018,05,05,11,41,14.70
2018,05,05,11,42,14.80
2018,05,05,11,43,14.80
2018,05,05,11,44,14.80
2018,05,05,11,45,14.80
2018,05,05,11,46,14.80
2018,05,05,11,47,14.80
2018,05,05,11,48,14.80
2018,05,05,11,49,14.80
2018,05,05,11,50,14.80
2018,05,05,11,51,14.70
2018,05,05,11,52,14.70
2018,05,05,11,53,14.60
2018,05,05,11,54,14.60
2018,05,05,11,55,14.50
2018,05,05,11,56,14.50
2018,05,05,11,57,14.20
2018,05,05,11,58,14.10
2018,05,05,11,59,13.90
2018,05,05,12,00,13.70
2018,05,05,12,01,13.70
2018,05,05,12,02,13.90
2018,05,05,12,03,13.90
2018,05,05,12,04,14.00
2018,05,05,12,05,14.00
2018,05,05,12,06,13.90
2018,05,05,12,07,13.90
2018,05,05,12,08,14.00
2018,05,05,12,09,14.10
2018,05,05,12,10,14.20
2018,05,05,12,11,14.20
2018,05,05,12,12,14.30
2018,05,05,12,13,14.50
2018,05,05,12,14,14.50
2018,05,05,12,15,14.60
2018,05,05,12,16,14.70
2018,05,05,12,17,14.80
2018,05,05,12,18,14.90
2018,05,05,12,19,15.00
2018,05,05,12,20,15.10
2018,05,05,12,21,15.20
2018,05,05,12,22,15.30
2018,05,05,12,23,15.40
2018,05,05,12,24,15.50
2018,05,05,12,25,15.60
2018,05,05,12,26,15.60
2018,05,05,12,27,15.60
2018,05,05,12,28,15.60
2018,05,05,12,29,15.60
2018,05,05,12,30,15.50
2018,05,05,12,31,15.50
2018,05,05,12,32,15.60
2018,05,05,12,33,15.70
2018,05,05,12,34,15.90
2018,05,05,12,35,16.00
2018,05,05,12,36,16.20
2018,05,05,12,37,16.30
2018,05,05,12,38,16.40
2018,05,05,12,39,16.60
2018,05,05,12,40,16.70
2018,05,05,12,41,16.70
2018,05,05,12,42,16.70
2018,05,05,12,43,16.70
2018,05,05,12,44,16.70
2018,05,05,12,45,16.70
2018,05,05,12,46,16.50
2018,05,05,12,47,16.40
2018,05,05,12,48,16.40
2018,05,05,12,49,16.30
2018,05,05,12,50,16.30
2018,05,05,12,51,16.30
2018,05,05,12,52,16.30
2018,05,05,12,53,16.20
2018,05,05,12,54,16.20
2018,05,05,12,55,16.20
2018,05,05,12,56,16.30
2018,05,05,12,57,16.40
2018,05,05,12,58,16.50
2018,05,05,12,59,16.60
2018,05,05,13,00,16.70
2018,05,05,13,01,16.70
2018,05,05,13,02,16.70
2018,05,05,13,03,16.70
2018,05,05,13,04,16.70
2018,05,05,13,05,16.70
2018,05,05,13,06,16.70
2018,05,05,13,07,16.70
2018,05,05,13,08,16.70
2018,05,05,13,09,16.70
2018,05,05,13,10,16.60
2018,05,05,13,11,16.50
2018,05,05,13,12,16.40
2018,05,05,13,13,16.40
2018,05,05,13,14,16.50
2018,05,05,13,15,16.40
2018,05,05,13,16,16.40
2018,05,05,13,17,16.40
2018,05,05,13,18,16.40
2018,05,05,13,19,16.40
2018,05,05,13,20,16.50
2018,05,05,13,21,16.60
2018,05,05,13,22,16.50
2018,05,05,13,23,16.40
2018,05,05,13,24,16.50
2018,05,05,13,25,16.70
2018,05,05,13,26,16.80
2018,05,05,13,27,16.90
2018,05,05,13,28,17.00
2018,05,05,13,29,17.00
2018,05,05,13,30,17.00
2018,05,05,13,31,17.00
2018,05,05,13,32,17.00
2018,05,05,13,33,16.90
2018,05,05,13,34,16.70
2018,05,05,13,35,16.70
2018,05,05,13,36,16.60
2018,05,05,13,37,16.40
2018,05,05,13,38,16.40
2018,05,05,13,39,16.40
2018,05,05,13,40,16.40
2018,05,05,13,41,16.60
2018,05,05,13,42,16.70
2018,05,05,13,43,16.70
2018,05,05,13,44,16.70
2018,05,05,13,45,16.70
2018,05,05,13,46,16.60
2018,05,05,13,47,16.50
2018,05,05,13,48,16.40
2018,05,05,13,49,16.30
2018,05,05,13,50,16.30
2018,05,05,13,51,16.40
2018,05,05,13,52,16.40
2018,05,05,13,53,16.50
2018,05,05,13,54,16.60
2018,05,05,13,55,16.60
2018,05,05,13,56,16.70
2018,05,05,13,57,16.70
2018,05,05,13,58,16.90
2018,05,05,13,59,17.00
2018,05,05,14,00,17.00
2018,05,05,14,01,17.10
2018,05,05,14,02,17.20
2018,05,05,14,03,17.10
2018,05,05,14,04,17.00
2018,05,05,14,05,16.90
2018,05,05,14,06,16.90
2018,05,05,14,07,16.80
2018,05,05,14,08,16.80
2018,05,05,14,09,16.70
2018,05,05,14,10,16.70
2018,05,05,14,11,16.70
2018,05,05,14,12,16.70
2018,05,05,14,13,16.70
2018,05,05,14,14,16.70
2018,05,05,14,15,16.70
2018,05,05,14,16,16.50
2018,05,05,14,17,16.40
2018,05,05,14,18,16.40
2018,05,05,14,19,16.40
2018,05,05,14,20,16.40
2018,05,05,14,21,16.40
2018,05,05,14,22,16.40
2018,05,05,14,23,16.40
2018,05,05,14,24,16.40
2018,05,05,14,25,16.40
2018,05,05,14,26,16.40
2018,05,05,14,27,16.50
2018,05,05,14,28,16.60
2018,05,05,14,29,16.70
2018,05,05,14,30,16.70
2018,05,05,14,31,16.60
2018,05,05,14,32,16.40
2018,05,05,14,33,16.40
2018,05,05,14,34,16.40
2018,05,05,14,35,16.40
2018,05,05,14,36,16.40
2018,05,05,14,37,16.60
2018,05,05,14,38,16.70
2018,05,05,14,39,16.60
2018,05,05,14,40,16.40
2018,05,05,14,41,16.40
2018,05,05,14,42,16.40
2018,05,05,14,43,16.40
2018,05,05,14,44,16.60
2018,05,05,14,45,16.60
2018,05,05,14,46,16.70
2018,05,05,14,47,16.80
2018,05,05,14,48,16.90
2018,05,05,14,49,16.90
2018,05,05,14,50,17.00
2018,05,05,14,51,17.00
2018,05,05,14,52,17.10
2018,05,05,14,53,17.20
2018,05,05,14,54,17.30
2018,05,05,14,55,17.40
2018,05,05,14,56,17.50
2018,05,05,14,57,17.50
2018,05,05,14,58,17.60
2018,05,05,14,59,17.50
2018,05,05,15,00,17.50
2018,05,05,15,01,17.50
2018,05,05,15,02,17.50
2018,05,05,15,03,17.50
2018,05,05,15,04,17.40
2018,05,05,15,05,17.40
2018,05,05,15,06,17.30
2018,05,05,15,07,17.10
2018,05,05,15,08,17.00
2018,05,05,15,09,17.00
2018,05,05,15,10,17.00
2018,05,05,15,11,17.10
2018,05,05,15,12,17.20
2018,05,05,15,13,17.30
2018,05,05,15,14,17.30
2018,05,05,15,15,17.30
2018,05,05,15,16,17.30
2018,05,05,15,17,17.30
2018,05,05,15,18,17.30
2018,05,05,15,19,17.30
2018,05,05,15,20,17.30
2018,05,05,15,21,17.30
2018,05,05,15,22,17.30
2018,05,05,15,23,17.30
2018,05,05,15,24,17.40
2018,05,05,15,25,17.40
2018,05,05,15,26,17.40
2018,05,05,15,27,17.40
2018,05,05,15,28,17.40
2018,05,05,15,29,17.30
2018,05,05,15,30,17.20
2018,05,05,15,31,17.20
2018,05,05,15,32,17.30
2018,05,05,15,33,17.40
2018,05,05,15,34,17.40
2018,05,05,15,35,17.40
2018,05,05,15,36,17.40
2018,05,05,15,37,17.40
2018,05,05,15,38,17.30
2018,05,05,15,39,17.30
2018,05,05,15,40,17.20
2018,05,05,15,41,17.10
2018,05,05,15,42,17.10
2018,05,05,15,43,17.00
2018,05,05,15,44,17.00
2018,05,05,15,45,16.90
2018,05,05,15,46,16.90
2018,05,05,15,47,16.80
2018,05,05,15,48,16.70
2018,05,05,15,49,16.50
2018,05,05,15,50,16.40
2018,05,05,15,51,16.40
2018,05,05,15,52,16.40
2018,05,05,15,53,16.50
2018,05,05,15,54,16.60
2018,05,05,15,55,16.60
2018,05,05,15,56,16.70
2018,05,05,15,57,16.70
2018,05,05,15,58,16.70
2018,05,05,15,59,16.80
2018,05,05,16,00,16.80
2018,05,05,16,01,16.70
2018,05,05,16,02,16.80
2018,05,05,16,03,16.80
2018,05,05,16,04,16.90
2018,05,05,16,05,16.80
2018,05,05,16,06,16.80
2018,05,05,16,07,16.90
2018,05,05,16,08,17.00
2018,05,05,16,09,17.00
2018,05,05,16,10,17.10
2018,05,05,16,11,17.10
2018,05,05,16,12,17.00
2018,05,05,16,13,16.90
2018,05,05,16,14,16.90
2018,05,05,16,15,16.90
2018,05,05,16,16,16.90
2018,05,05,16,17,16.80
2018,05,05,16,18,16.90
2018,05,05,16,19,17.00
2018,05,05,16,20,17.00
2018,05,05,16,21,17.10
2018,05,05,16,22,17.20
2018,05,05,16,23,17.30
2018,05,05,16,24,17.30
2018,05,05,16,25,17.30
2018,05,05,16,26,17.40
2018,05,05,16,27,17.40
2018,05,05,16,28,17.50
2018,05,05,16,29,17.40
2018,05,05,16,30,17.40
2018,05,05,16,31,17.40
2018,05,05,16,32,17.40
2018,05,05,16,33,17.40
2018,05,05,16,34,17.40
2018,05,05,16,35,17.20
2018,05,05,16,36,17.10
2018,05,05,16,37,17.00
2018,05,05,16,38,17.00
2018,05,05,16,39,17.00
2018,05,05,16,40,17.00
2018,05,05,16,41,17.00
2018,05,05,16,42,17.00
2018,05,05,16,43,16.90
2018,05,05,16,44,16.90
2018,05,05,16,45,16.90
2018,05,05,16,46,16.90
2018,05,05,16,47,16.80
2018,05,05,16,48,16.80
2018,05,05,16,49,16.70
2018,05,05,16,50,16.70
2018,05,05,16,51,16.70
2018,05,05,16,52,16.70
2018,05,05,16,53,16.70
2018,05,05,16,54,16.70
2018,05,05,16,55,16.80
2018,05,05,16,56,16.70
2018,05,05,16,57,16.70
2018,05,05,16,58,16.80
2018,05,05,16,59,16.80
2018,05,05,17,00,16.90
2018,05,05,17,01,16.90
2018,05,05,17,02,16.90
2018,05,05,17,03,16.90
2018,05,05,17,04,16.90
2018,05,05,17,05,16.90
2018,05,05,17,06,16.90
2018,05,05,17,07,17.00
2018,05,05,17,08,17.00
2018,05,05,17,09,17.10
2018,05,05,17,10,17.20
2018,05,05,17,11,17.30
2018,05,05,17,12,17.50
2018,05,05,17,13,17.60
2018,05,05,17,14,17.70
2018,05,05,17,15,17.80
2018,05,05,17,16,17.80
2018,05,05,17,17,17.80
2018,05,05,17,18,17.80
2018,05,05,17,19,17.80
2018,05,05,17,20,17.80
2018,05,05,17,21,17.80
2018,05,05,17,22,17.70
2018,05,05,17,23,17.70
2018,05,05,17,24,17.80
2018,05,05,17,25,17.80
2018,05,05,17,26,17.80
2018,05,05,17,27,17.80
2018,05,05,17,28,17.80
2018,05,05,17,29,17.80
2018,05,05,17,30,17.80
2018,05,05,17,31,17.80
2018,05,05,17,32,17.80
2018,05,05,17,33,17.90
2018,05,05,17,34,17.90
2018,05,05,17,35,17.90
2018,05,05,17,36,17.90
2018,05,05,17,37,17.90
2018,05,05,17,38,17.90